Regional Weather Roundup
Issued by NWS

Home | Current Version | Previous Version | Graphics & Text | Print | Product List | Glossary On
Versions: 1 2 3 4 5 6 7 8 9 10 11 12 13 14 15 16 17 18 19 20 21 22 23 24 25 26 27 28 29 30 31 32 33 34 35 36 37 38 39 40 41 42 43 44 45 46 47 48 49 50
000
ASUS44 KMEG 222100
RWRTN
TENNESSEE HOURLY STATE WEATHER ROUNDUP
NATIONAL WEATHER SERVICE MEMPHIS TN
400 PM CDT TUE APR 22 2014

TNZ002-004-019-021-049-052-054-088>092-222200-
WEST TENNESSEE

CITY           SKY/WX    TMP DP  RH WIND       PRES   REMARKS
MEMPHIS INTL   MOSUNNY   74  54  49 N7        29.92F
NWS MEMPHIS      N/A     77 N/A N/A MISG        N/A
JACKSON        MOSUNNY   74  55  51 NW12      29.89F
DYERSBURG      SUNNY     73  45  35 NW10G16   29.93S
UNION CITY     SUNNY     72  46  40 N12       29.90F
LEXINGTON      MOSUNNY   73  55  53 N10       29.86S
$$

TNZ008-025-027-028-033-062-065-066-222200-
NORTH MIDDLE TENNESSEE

CITY           SKY/WX    TMP DP  RH WIND       PRES   REMARKS
NASHVILLE      PTSUNNY   78  53  41 NW14      29.84F
CLARKSVILLE    SUNNY     74  46  36 NW16      29.87F
COOKEVILLE     PTSUNNY   73  61  64 N3        29.83F
CROSSVILLE     MOSUNNY   70  55  59 W9        29.85F
$$

TNZ061-075-076-078-094-096-097-222200-
SOUTH MIDDLE TENNESSEE

CITY           SKY/WX    TMP DP  RH WIND       PRES   REMARKS
TULLAHOMA      MOSUNNY   70  57  64 NW7       29.87S
WINCHESTER     PTSUNNY   73  61  64 VRB6      29.85F
MCMINNVILLE    MOSUNNY   72  63  73 W3        29.84F
COLUMBIA       MOSUNNY   75  70  83 N5        29.84F
$$

TNZ017-018-042-046-047-222200-
NORTHEAST TENNESSEE

CITY           SKY/WX    TMP DP  RH WIND       PRES   REMARKS
TRI CITIES     CLOUDY    65  56  72 W10       29.81F
ELIZABETHTON   LGT RAIN  61  57  88 CALM      29.81S
$$

TNZ012-013-036-069-073-074-222200-
CENTRAL EAST TENNESSEE

CITY           SKY/WX    TMP DP  RH WIND       PRES   REMARKS
KNOXVILLE      PTSUNNY   65  61  87 SW8       29.83F
OAK RIDGE      MOSUNNY   71  60  68 SW3       29.82F
$$

TNZ083-085-099-222200-
SOUTHEAST TENNESSEE

CITY           SKY/WX    TMP DP  RH WIND       PRES   REMARKS
CHATTANOOGA    PTSUNNY   70  62  76 CALM      29.84F
$$

SKY/WX REPORTED AS FAIR MEANS FEW OR NO CLOUDS BELOW
12 THOUSAND FEET.




USA.gov is the U.S. government's official web portal to all federal, state and local government web resources and services.